1333756827888,51.3148
1333756887888,51.4533
1333756947888,51.3925
1333757007888,51.3958
1333757067888,51.4467
1333757127888,51.4647
1333757187888,51.3384
1333757247888,50.8475
1333757307888,51.3074
1333757367888,51.4342
1333757427888,51.4059
1333757487888,51.4330
1333757547888,51.4134
1333757607888,51.3999
1333757667888,51.4147
1333757727888,51.2528
1333757787888,51.2735
1333757847888,51.4054
1333757907888,51.3590
1333757967888,51.1676
1333758027888,51.0603
1333758087888,51.2748
1333758147888,51.2889
1333758207888,51.2639
1333758267888,51.2187
1333758327888,51.1994
1333758387888,51.3185
1333758447888,51.0649
1333758507888,51.4551
1333758567888,51.1970
1333758627888,51.3779
1333758687888,51.1482
1333758747888,51.2494
1333758807888,51.1884
1333758867888,51.3668
1333758927888,51.2915
1333758987888,51.3033
1333759047888,51.2198
1333759107888,51.2823
1333759167888,51.2598
1333759227888,51.1773
1333759287888,51.2758
1333759347888,51.2120
1333759407888,51.2741
1333759467888,51.1508
1333759527888,51.2429
1333759587888,51.1156
1333759647888,51.3011
1333759707888,51.0087
1333759767888,51.1342
1333759827888,51.2016
1333759887888,51.1881
1333759947888,51.0665
1333760007888,51.3507
1333760067888,51.0079
1333760127888,51.0332
1333760187888,51.1064
1333760247888,51.1071
1333760307888,51.0742
1333760367888,51.0780
1333760427899,51.1890
1333760487899,51.0209
1333760547899,51.0281
1333760607899,51.1922
1333760667899,51.0295
1333760727899,51.0253
1333760787899,51.2007
1333760847899,51.1740
1333760907899,51.0839
1333760967899,51.0479
1333761027899,51.1816
1333761087899,51.0772
1333761147899,51.1976
1333761207899,51.2610
1333761267899,51.1636
1333761327899,51.1208
1333761387899,51.0656
1333761447899,51.0486
1333761507899,51.1073
1333761567899,50.9293
1333761627899,51.1503
1333761687899,51.1303
1333761747899,51.2208
1333761807899,51.1405
1333761867899,51.1073
1333761927899,51.2312
1333761987899,51.1687
1333762047899,51.2643
1333762107899,51.2054
1333762167899,51.1316
1333762227899,51.1593
1333762287899,51.1645
1333762347899,51.1922
1333762407899,51.0914
1333762467899,51.2109
1333762527899,51.0595
1333762587899,51.2468
1333762647899,51.2786
1333762707899,51.2591
1333762767899,51.2639
1333762827899,51.1869
1333762887899,51.1762
1333762947899,51.1484
1333763007899,51.3182
1333763067899,51.3212
1333763127899,51.2897
1333763187899,51.3726
1333763247899,51.3037
1333763307899,51.2862
1333763367899,51.3183
1333763427899,51.3655
1333763487899,51.2685
1333763547899,51.3957
1333763607899,51.2786
1333763667899,51.1442
1333763727899,51.3243
1333763787899,51.3302
1333763847899,51.3384
1333763907899,51.2357
1333763967899,51.3794
1333764027911,51.3347
1333764087911,51.3509
1333764147911,51.3551
1333764207911,51.2031
1333764267911,51.3045
1333764327911,51.3716
1333764387911,51.1900
1333764447911,51.4501
1333764507911,51.3299
1333764567911,51.3581
1333764627911,51.2650
1333764687911,51.2372
1333764747911,51.2115
1333764807911,51.3026
1333764867911,51.3187
1333764927911,51.2869
1333764987911,51.1993
1333765047911,51.3117
1333765107911,51.2243
1333765167911,51.0988
1333765227911,51.3118
1333765287911,51.3616
1333765347911,51.2627
1333765407911,51.1711
1333765467911,51.2720
1333765527911,51.2977
1333765587911,51.0421
1333765647911,51.1644
1333765707911,51.0560
1333765767911,51.2820
1333765827911,51.2846
1333765887911,51.2507
1333765947911,51.0949
1333766007911,51.2275
1333766067911,51.0964
1333766127911,51.0463
1333766187911,51.2243
1333766247911,51.1570
1333766307911,51.1345
1333766367911,51.1849
1333766427911,51.0697
1333766487911,51.2419
1333766547911,51.0727
1333766607911,51.1849
1333766667911,51.2439
1333766727911,51.1116
1333766787911,51.1463
1333766847911,51.2069
1333766907911,51.1476
1333766967911,51.1249
1333767027911,51.2648
1333767087911,51.1961
1333767147911,50.9986
1333767207911,51.3004
1333767267911,51.1599
1333767327911,51.2298
1333767387911,51.0203
1333767447911,51.1481
1333767507911,51.1115
1333767567911,51.1320
1333767627922,51.1485
1333767687922,51.0898
1333767747922,51.0617
1333767807922,50.9849
1333767867922,51.0114
1333767927922,51.0741
1333767987922,51.1937
1333768047922,51.1302
1333768107922,51.2014
1333768167922,51.1701
1333768227922,51.0072
1333768287922,51.0960
1333768347922,51.1051
1333768407922,51.1059
1333768467922,51.0126
1333768527922,51.0251
1333768587922,51.1608
1333768647922,50.9969
1333768707922,51.0397
1333768767922,51.1767
1333768827922,51.0407
1333768887922,51.2150
1333768947922,51.1534
1333769007922,51.2085
1333769067922,51.1487
1333769127922,51.1684
1333769187922,51.1389
1333769247922,51.1650
1333769307922,51.1655
1333769367922,51.2218
1333769427922,51.0887
1333769487922,50.9739
1333769547922,51.1999
1333769607922,50.9797
1333769667922,51.0093
1333769727922,51.0915
1333769787922,51.0021
1333769847922,51.0731
1333769907922,50.9865
1333769967922,51.1687
1333770027922,51.0495
1333770087922,51.0219
1333770147922,51.0691
1333770207922,51.2192
1333770267922,51.1411
1333770327922,51.0760
1333770387922,51.2126
1333770447922,51.0273
1333770507922,51.2006
1333770567922,51.0668
1333770627922,51.0725
1333770687922,51.1520
1333770747922,51.1523
1333770807922,51.1565
1333770867922,51.1179
1333770927922,51.1055
1333770987922,51.1017
1333771047922,51.0835
1333771107922,51.0636
1333771167922,51.1471
1333771227933,51.1735
1333771287933,51.1038
1333771347933,51.1487
1333771407933,51.2970
1333771467933,51.2574
1333771527933,51.1445
1333771587933,51.3274
1333771647933,51.0815
1333771707933,51.0581
1333771767933,51.1127
1333771827933,51.1737
1333771887933,51.2281
1333771947933,51.0454
1333772007933,51.2417
1333772067933,51.2847
1333772127933,51.1031
1333772187933,51.0580
1333772247933,51.0508
1333772307933,51.1832
1333772367933,51.1280
1333772427933,51.1017
1333772487933,51.1540
1333772547933,50.8853
1333772607933,51.0434
1333772667933,51.1008
1333772727933,51.1599
1333772787933,51.0903
1333772847933,51.2392
1333772907933,51.2622
1333772967933,51.1441
1333773027933,51.1383
1333773087933,51.1282
1333773147933,51.1769
1333773207933,51.1938
1333773267933,51.1384
1333773327933,51.1960
1333773387933,51.1020
1333773447933,51.2505
1333773507933,51.0902
1333773567933,51.0670
1333773627933,51.1530
1333773687933,51.1719
1333773747933,51.1345
1333773807933,51.0733
1333773867933,51.2052
1333773927933,51.2204
1333773987933,51.4987
1333774047933,51.0439
1333774107933,51.2621
1333774167933,51.2122
1333774227933,51.4007
1333774287933,51.2592
1333774347933,51.3286
1333774407933,51.4027
1333774467933,51.2404
1333774527933,51.2538
1333774587933,51.2101
1333774647933,51.2645
1333774707933,51.0486
1333774767933,51.2165
1333774827944,51.3732
1333774887944,51.2083
1333774947944,51.1687
1333775007944,51.0938
1333775067944,51.2556
1333775127944,51.1998
1333775187944,51.3528
1333775247944,51.1289
1333775307944,51.3300
1333775367944,51.2415
1333775427944,51.2236
1333775487944,51.5870
1333775547944,51.3389
1333775607944,51.2573
1333775667944,51.1931
1333775727944,51.1651
1333775787944,51.1477
1333775847944,51.1230
1333775907944,51.1538
1333775967944,51.1544
1333776027944,51.0151
1333776087944,51.0699
1333776147944,51.1122
1333776207944,51.2040
1333776267944,51.1657
1333776327944,51.2049
1333776387944,51.2754
1333776447944,51.2431
1333776507944,51.1524
1333776567944,51.1568
1333776627944,51.3998
1333776687944,51.3067
1333776747944,51.3020
1333776807944,51.3985
1333776867944,51.2645
1333776927944,51.2308
1333776987944,51.2590
1333777047944,51.2289
1333777107944,51.1489
1333777167944,51.2763
1333777227944,51.2406
1333777287944,51.4162
1333777347944,51.2319
1333777407944,51.2065
1333777467944,51.3587
1333777527944,51.4334
1333777587944,51.2819
1333777647944,51.5388
1333777707944,51.3025
1333777767944,51.1910
1333777827944,51.3759
1333777887944,51.2698
1333777947944,51.3217
1333778007944,51.2330
1333778067944,51.3539
1333778127944,51.3287
1333778187944,51.3279
1333778247944,51.3103
1333778307944,51.3149
1333778367944,51.3838
1333778427955,51.4166
1333778487955,51.3365
1333778547955,51.3243
1333778607955,51.3543
1333778667955,51.2075
1333778727955,51.4001
1333778787955,51.4051
1333778847955,51.4734
1333778907955,51.4716
1333778967955,51.4054
1333779027955,51.3744
1333779087955,51.3229
1333779147955,51.3137
1333779207955,51.2564
1333779267955,51.2986
1333779327955,51.3212
1333779387955,51.2806
1333779447955,51.3054
1333779507955,51.2789
1333779567955,51.3210
1333779627955,51.2392
1333779687955,51.0824
1333779747955,51.1482
1333779807955,51.2329
1333779867955,51.3864
1333779927955,51.3371
1333779987955,51.2335
1333780047955,51.3568
1333780107955,51.3329
1333780167955,51.2912
1333780227955,51.2807
1333780287955,51.3311
1333780347955,51.2003
1333780407955,51.2960
1333780467955,51.2071
1333780527955,51.3087
1333780587955,51.3648
1333780647955,51.2891
1333780707955,51.2536
1333780767955,51.2084
1333780827955,51.3837
1333780887955,51.1941
1333780947955,51.2029
1333781007955,51.3865
1333781067955,51.3623
1333781127955,51.1599
1333781187955,51.0956
1333781247955,51.0669
1333781307955,51.2043
1333781367955,51.2080
1333781427955,51.2078
1333781487955,51.1508
1333781547955,51.1010
1333781607955,51.0112
1333781667955,51.0679
1333781727955,51.1108
1333781787955,51.1864
1333781847955,51.0478
1333781907955,51.0868
1333781967955,51.0615
1333782027966,50.9982
1333782087966,51.1822
1333782147966,51.0517
1333782207966,50.9056
1333782267966,51.0069
1333782327966,51.1565
1333782387966,51.0119
1333782447966,51.0419
1333782507966,51.1757
1333782567966,51.0821
1333782627966,50.9607
1333782687966,51.1135
1333782747966,50.9561
1333782807966,51.1007
1333782867966,50.9987
1333782927966,51.0466
1333782987966,51.0993
1333783047966,51.0192
1333783107966,51.0576
1333783167966,51.0844
1333783227966,51.0456
1333783287966,50.9106
1333783347966,51.1510
1333783407966,51.0918
1333783467966,51.0217
1333783527966,51.1791
1333783587966,51.0180
1333783647966,51.1547
1333783707966,51.0780
1333783767966,50.9516
1333783827966,51.0418
1333783887966,51.0417
1333783947966,51.0385
1333784007966,51.0553
1333784067966,51.2403
1333784127966,50.9907
1333784187966,51.0745
1333784247966,51.0625
1333784307966,50.9588
1333784367966,51.0122
1333784427966,51.1498
1333784487966,51.0052
1333784547966,51.0794
1333784607966,51.0315
1333784667966,51.0344
1333784727966,50.9405
1333784787966,50.9915
1333784847966,51.0552
1333784907966,51.1313
1333784967966,51.0491
1333785027966,51.1870
1333785087966,51.1116
1333785147966,51.1184
1333785207966,51.1210
1333785267966,51.1503
1333785327966,51.0813
1333785387966,51.0855
1333785447966,51.0466
1333785507966,50.9612
1333785567966,51.0617
1333785627977,51.0377
1333785687977,51.0832
1333785747977,51.1261
1333785807977,51.0574
1333785867977,51.1197
1333785927977,51.0013
1333785987977,51.1022
1333786047977,51.0394
1333786107977,51.0722
1333786167977,50.8707
1333786227977,51.0364
1333786287977,50.9076
1333786347977,50.9464
1333786407977,50.8999
1333786467977,51.0019
1333786527977,50.8159
1333786587977,50.9853
1333786647977,50.9965
1333786707977,51.0470
1333786767977,50.9710
1333786827977,51.0240
1333786887977,50.9140
1333786947977,50.7587
1333787007977,50.8936
1333787067977,50.9034
1333787127977,50.8013
1333787187977,50.8910
1333787247977,50.9087
1333787307977,51.0304
1333787367977,50.9947
1333787427977,50.9323
1333787487977,50.8754
1333787547977,50.8927
1333787607977,50.9306
1333787667977,50.9673
1333787727977,50.9021
1333787787977,50.8336
1333787847977,51.0343
1333787907977,50.9687
1333787967977,50.8708
1333788027977,50.9059
1333788087977,50.9420
1333788147977,50.9467
1333788207977,50.7925
1333788267977,50.8278
1333788327977,50.7355
1333788387977,50.8125
1333788447977,50.9365
1333788507977,51.0285
1333788567977,50.7689
1333788627977,50.7878
1333788687977,50.8506
1333788747977,50.8320
1333788807977,50.9245
1333788867977,50.8746
1333788927977,50.9998
1333788987977,50.7912
1333789047977,50.8844
1333789107977,50.9234
1333789167977,51.0761
1333789227988,51.0918
1333789287988,50.9059
1333789347988,50.9374
1333789407988,51.0646
1333789467988,50.8775
1333789527988,51.0030
1333789587988,51.0592
1333789647988,50.9915
1333789707988,50.9821
1333789767988,51.0881
1333789827988,50.9479
1333789887988,51.0396
1333789947988,51.2738
1333790007988,50.8970
1333790067988,50.8569
1333790127988,50.8838
1333790187988,50.9419
1333790247988,50.9489
1333790307988,50.9026
1333790367988,50.9851
1333790427988,51.0305
1333790487988,50.8300
1333790547988,51.0994
1333790607988,50.9588
1333790667988,50.8217
1333790727988,51.0518
1333790787988,51.0578
1333790847988,50.9669
1333790907988,51.0001
1333790967988,51.1415
1333791027988,50.9453
1333791087988,51.0898
1333791147988,51.2643
1333791207988,51.2503
1333791267988,50.9978
1333791327988,51.1220
1333791387988,51.0638
1333791447988,51.0489
1333791507988,51.0244
1333791567988,50.9346
1333791627988,51.0952
1333791687988,50.8995
1333791747988,51.0524
1333791807988,50.8292
1333791867988,51.1464
1333791927988,51.0326
1333791987988,51.0612
1333792047988,51.0449
1333792107988,51.0843
1333792167988,51.0440
1333792227988,51.0975
1333792287988,50.9320
1333792347988,51.0670
1333792407988,50.9717
1333792467988,50.9561
1333792527988,50.7909
1333792587988,50.9549
1333792647988,50.8971
1333792707988,50.8627
1333792767988,51.1233
1333792827998,51.1920
1333792887998,50.9146
1333792947998,51.1204
1333793007999,51.0293
1333793067999,51.0023
1333793127999,50.9575
1333793187999,50.9400
1333793247999,50.8588
1333793307999,51.1211
1333793367999,50.8740
1333793427999,50.7674
1333793487999,50.8612
1333793547999,50.9039
1333793607999,50.9594
1333793667999,50.9449
1333793727999,50.7811
1333793787999,50.8113
1333793847999,50.7030
1333793907999,50.8634
1333793967999,50.8738
1333794027998,50.8290
1333794087998,50.7462
1333794147998,50.9136
1333794207998,50.8503
1333794267998,50.7591
1333794327998,50.8398
1333794387999,50.9223
1333794447999,50.7936
1333794507999,50.9215
1333794567999,50.8468
1333794627999,50.9590
1333794687998,50.7999
1333794747999,50.8204
1333794807999,51.0154
1333794867999,50.9134
1333794927999,50.7834
1333794987999,50.7759
1333795047999,50.7864
1333795107999,50.8987
1333795167999,50.7502
1333795227999,50.8225
1333795287999,50.9407
1333795347999,50.9867
1333795407998,50.8872
1333795467998,50.8498
1333795527998,51.0199
1333795587998,50.8598
1333795647998,50.9251
1333795707999,50.9077
1333795767999,50.8192
1333795827999,50.7472
1333795887999,50.8356
1333795947999,50.9983
1333796007999,50.6700
1333796067999,50.9950
1333796127999,50.8522
1333796187999,50.9430
1333796247999,50.9285
1333796307999,50.8152
1333796367999,50.9353
1333796428009,50.8826
1333796488009,50.7621
1333796548009,50.8970
1333796608009,50.9070
1333796668009,50.9629
1333796728009,50.8404
1333796788009,50.8457
1333796848009,50.8400
1333796908009,50.7700
1333796968009,50.7458
1333797028009,50.9114
1333797088009,50.8154
1333797628009,51.0025
1333797688009,50.6715
1333797748009,50.7245
1333797808009,50.8821
1333797868009,50.8850
1333797928009,50.7382
1333797988009,50.7342
1333798048009,50.8638
1333798108009,50.7819
1333798168009,50.7360
1333798228009,50.8195
1333798288009,50.8350
1333798348009,50.7536
1333798408009,51.0125
1333798468009,50.8603
1333798528009,50.8867
1333798588009,50.8716
1333798648009,50.9348
1333798708009,50.9418
1333798768009,50.8254
1333798828009,50.8134
1333798888009,50.9132
1333798948009,50.8446
1333799008009,50.8979
1333799068009,51.0782
1333799128009,50.7818
1333799188009,51.0564
1333799248009,50.8985
1333799308009,50.8768
1333799368009,51.0358
1333799428009,50.8035
1333799488009,50.8155
1333799548009,50.9092
1333799608009,50.7227
1333799668009,50.7777
1333799728009,50.8744
1333799788009,50.8800
1333799848009,50.9055
1333799908009,51.1029
1333799968009,50.9936
1333800028020,50.8063
1333800088020,51.1203
1333800148020,51.0735
1333800208020,50.8963
1333800268020,50.9889
1333800328020,50.8502
1333800388020,50.7587
1333800448020,50.9087
1333800508020,50.9002
1333800568020,50.9223
1333800628020,50.8433
1333800688020,50.9119
1333800748020,50.9521
1333800808020,50.9583
1333800868020,50.9102
1333800928020,50.9294
1333800988020,50.9921
1333801048020,50.9094
1333801108020,50.9505
1333801168020,51.0173
1333801228020,51.0190
1333801288020,50.9576
1333801348020,51.0581
1333801408020,50.9553
1333801468020,50.9621
1333801528020,50.8504
1333801588020,50.8944
1333801648020,50.8930
1333801708020,50.8632
1333801768020,51.0542
1333801828020,50.8823
1333801888020,51.0393
1333801948020,50.9510
1333802008020,50.8989
1333802068020,50.9546
1333802128020,51.1249
1333802188020,50.9205
1333802248020,51.0008
1333802308020,51.1699
1333802368020,51.1140
1333802428020,51.1357
1333802488020,50.9894
1333802548020,51.0121
1333802608020,50.9783
1333802668020,51.0269
1333802728020,51.0884
1333802788020,51.1294
1333802848020,50.9274
1333802908020,51.0131
1333802968020,51.0593
1333803028020,50.9703
1333803088020,50.8690
1333803148020,51.0304
1333803208020,50.9700
1333803268020,51.0271
1333803328020,51.0143
1333803388020,50.9803
1333803448020,51.1118
1333803508020,50.9445
1333803568020,51.0412
1333803628031,51.0289
1333803688031,50.8430
1333803748031,50.9609
1333803808031,51.0449
1333803868031,51.0303
1333803928031,50.9066
1333803988031,50.7908
1333804048031,50.9869
1333804108031,50.9411
1333804168031,50.9598
1333804228031,51.0167
1333804288031,50.8061
1333804348031,50.7904
1333804408031,50.9731
1333804468031,50.8619
1333804528031,50.8688
1333804588031,50.9121
1333804648031,50.7988
1333804708031,51.0029
1333804768031,50.8541
1333804828031,51.0356
1333804888031,50.8803
1333804948031,50.7543
1333805008031,50.8570
1333805068031,50.7599
1333805128031,50.8777
1333805188031,50.8796
1333805248031,50.8146
1333805308031,50.7514
1333805368031,50.8457
1333805428031,50.8963
1333805488031,50.9384
1333805548031,50.7951
1333805608031,50.7562
1333805668031,50.9663
1333805728031,50.8733
1333805788031,50.9584
1333805848031,50.9954
1333805908031,50.9212
1333805968031,50.7724
1333806028031,50.9532
1333806088031,50.7859
1333806148031,50.9652
1333806208031,50.8385
1333806268031,50.8112
1333806328031,50.7330
1333806388031,51.0287
1333806448031,50.7887
1333806508031,50.8444
1333806568031,50.8869
1333806628031,50.7364
1333806688031,50.9090
1333806748031,50.8227
1333806808031,50.8052
1333806868031,50.8795
1333806928031,50.6935
1333806988031,50.9044
1333807048031,50.7250
1333807108031,50.9074
1333807168031,50.8476
1333807228042,50.8366
1333807288042,50.8687
1333807348042,50.7653
1333807408042,50.8436
1333807468042,50.8369
1333807528042,51.0269
1333807588042,50.8645
1333807648042,50.7192
1333807708042,50.7216
1333807768042,50.7082
1333807828042,50.6901
1333807888042,50.7473
1333807948042,50.8434
1333808008042,50.8172
1333808068042,50.8191
1333808128042,50.7899
1333808188042,50.7747
1333808248042,50.8242
1333808308042,50.7517
1333808368042,50.7156
1333808428042,50.7737
1333808488042,50.9593
1333808548042,50.7691
1333808608042,50.9424
1333808668042,50.7618
1333808728042,50.8556
1333808788042,50.8238
1333808848042,50.6716
1333808908042,50.7719
1333808968042,50.6287
1333809028042,50.6429
1333809088042,50.8976
1333809148042,50.8097
1333809208042,50.7235
1333809268042,50.8341
1333809328042,50.5011
1333809388042,50.7580
1333809448042,50.7353
1333809508042,50.8021
1333809568042,50.7872
1333809628042,50.8121
1333809688042,50.7199
1333809748042,50.7353
1333809808042,50.7909
1333809868042,50.7352
1333809928042,50.6988
1333809988042,50.6662
1333810048042,50.7097
1333810108042,50.6599
1333810168042,50.8044
1333810228042,50.7557
1333810288042,50.6004
1333810348042,50.6984
1333810408042,50.6155
1333810468042,50.7026
1333810528042,50.7328
1333810588042,50.6454
1333810648042,50.7373
1333810708042,50.7238
1333810768042,50.7931
1333810828052,50.5987
1333810888052,50.6714
1333810948052,50.7287
1333811008052,50.7213
1333811068052,50.6119
1333811128052,50.7037
1333811188052,50.8317
1333811248052,50.9350
1333811308052,50.7502
1333811368052,50.6738
1333811428052,50.8580
1333811488052,50.7221
1333811548052,50.8302
1333811608052,50.8397
1333811668052,50.8111
1333811728052,50.8014
1333811788052,50.8461
1333811848052,50.7521
1333811908052,50.7883
1333811968052,50.7438
1333812028052,50.7333
1333812088052,50.8090
1333812148052,50.8288
1333812208052,50.9373
1333812268052,50.8586
1333812328052,51.0769
1333812388052,50.7747
1333812448052,50.8780
1333812508052,50.8772
1333812568052,50.9200
1333812628052,50.8734
1333812688052,50.8193
1333812748052,51.0355
1333812808052,50.9563
1333812868052,50.9461
1333812928052,50.7752
1333812988052,50.9421
1333813048052,50.9377
1333813108052,50.8004
1333813168052,50.9044
1333813228052,50.8611
1333813288052,50.7384
1333813348052,50.9244
1333813408052,51.0093
1333813468052,50.9684
1333813528052,50.8650
1333813588052,50.8197
1333813648052,50.9213
1333813708052,50.8177
1333813768052,50.7673
1333813828052,50.9414
1333813888052,50.9039
1333813948052,50.7393
1333814008052,50.9271
1333814068052,50.7421
1333814128052,50.8963
1333814188052,50.6182
1333814248052,50.7409
1333814308052,50.8605
1333814368052,50.8102
1333814428063,50.8717
1333814488063,50.7222
1333814548063,50.8499
1333814608063,50.7002
1333814668063,50.8732
1333814728063,50.6951
1333814788063,50.8761
1333814848063,50.7945
1333814908063,50.8408
1333814968063,50.6730
1333815028063,50.9175
1333815088063,50.7279
1333815148063,50.8483
1333815208063,50.8337
1333815268063,50.7230
1333815328063,50.7730
1333815388063,50.9292
1333815448063,50.7806
1333815508063,50.7878
1333815568063,50.8596
1333815628063,50.7436
1333815688063,50.6511
1333815748063,50.7649
1333815808063,50.8238
1333815868063,50.6796
1333815928063,50.6072
1333815988063,50.7180
1333816048063,50.7853
1333816108063,50.8635
1333816168063,50.6317
1333816228063,50.9140
1333816288063,50.6664
1333816348063,50.8693
1333816408063,50.5808
1333816468063,50.7992
1333816528063,50.7044
1333816588063,50.6768
1333816648063,50.6916
1333816708063,50.7136
1333816768063,50.6776
1333816828063,50.4787
1333816888063,50.7404
1333816948063,50.6765
1333817008063,50.6520
1333817068063,50.5902
1333817128063,50.7228
1333817188063,50.7008
1333817248063,50.7855
1333817308063,50.4273
1333817368063,50.6503
1333817428063,50.6696
1333817488063,50.5871
1333817548063,50.7919
1333817608063,50.4338
1333817668063,50.6293
1333817728063,50.8160
1333817788063,50.4188
1333817848063,50.6276
1333817908063,50.5291
1333817968063,50.6755
1333818028074,50.8004
1333818088074,50.5358
1333818148074,50.6117
1333818208074,50.8762
1333818268074,50.9211
1333818328074,50.7956
1333818388074,50.7443
1333818448074,50.9283
1333818508074,50.8541
1333818568074,50.8569
1333818628074,50.6193
1333818688074,50.7790
1333818748074,50.8650
1333818808074,50.6762
1333818868074,50.6412
1333818928074,50.7352
1333818988074,50.6422
1333819048074,50.7039
1333819108074,50.6578
1333819168074,50.6018
1333819228074,50.7391
1333819288074,50.5470
1333819348074,50.7770
1333819408074,50.5145
1333819468074,50.7084
1333819528074,50.6507
1333819588074,50.6640
1333819648074,50.5412
1333819708074,50.6152
1333819768074,50.6029
1333819828074,50.6239
1333819888074,50.6537
1333819948074,50.5913
1333820008074,50.4323
1333820068074,50.6427
1333820128074,50.6270
1333820188074,50.5033
1333820248074,50.4913
1333820308074,50.4516
1333820368074,50.6511
1333820428074,50.5850
1333820488074,50.4297
1333820548074,50.3567
1333820608074,50.4003
1333820668074,50.1925
1333820728074,50.4238
1333820788074,50.4618
1333820848074,50.4302
1333820908074,50.4810
1333820968074,50.3183
1333821028074,50.4016
1333821088074,50.4272
1333821148074,50.4962
1333821208074,50.3456
1333821268074,50.3448
1333821328074,50.3021
1333821388074,50.2192
1333821448074,50.3517
1333821508074,50.2836
1333821568074,50.4059
1333821628084,50.1703
1333821688084,50.2287
1333821748084,50.3791
1333821808084,50.4361
1333821868084,50.2889
1333821928084,50.3528
1333821988084,50.2456
1333822048084,50.1931
1333822108084,50.2512
1333822168084,50.2974
1333822228084,50.0767
1333822288084,50.1403
1333822348084,50.3009
1333822408084,50.3937
1333822468084,50.3442
1333822528084,50.2055
1333822588084,50.1671
1333822648084,50.1376